Presure
135 95 144 149 150 143 150 162 129 152 152 152 102 140 84 88 82 91 78 81 158 157 93 162 118 138 151 137 122 137 146 132 149 132 140 137 149 148 146 134 137 135 120 140 146 117 136 134 142
144 125 97 155 77 153 146 117 153 86 123 91 80 106 114 97 80 81 80 85 79 109 177 95 135 164 162 144 112 150 148 112 152 120 133 143 132 136 133 143 148 119 136 113 145 125 125 135 112
152 128 150 112 179 115 122 142 136 149 120 162 163 136 151 86 83 76 106 102 82 147 99 166 123 176 126 158 168 128 147 143 139 134 111 129 130 114 104 96 144 134 137 133 131 146 120 141 143
157 151 146 148 76 116 90 88 95 139 140 154 158 152 145 140 98 100 138 98 145 80 89 150 136 174 100 148 101 150 104 103 139 100 136 129 94 98 100 106 136 108 105 123 134 144 143 156 130
152 82 153 144 153 108 116 88 83 106 86 77 144 139 140 155 156 139 121 153 85 141 158 141 99 85 82 77 77 156 132 130 103 111 108 109 107 143 138 145 107 114 126 123 142 142 150 135 123
150 141 144 127 77 74 116 108 87 115 144 136 114 161 90 80 154 126 150 148 134 108 117 132 137 102 150 80 76 79 156 125 161 146 127 83 95 90 115 113 115 124 141 133 139 103 149 150 145
163 168 150 150 127 145 135 154 72 68 151 149 174 163 96 142 150 89 144 147 137 126 121 97 173 87 149 78 81 146 148 86 103 78 92 112 133 145 147 129 114 114 108 120 134 100 136 136 137
168 156 158 148 140 148 152 140 142 76 72 132 156 156 149 139 151 141 75 169 109 116 88 154 149 129 126 82 109 92 158 165 83 131 127 137 104 81 78 95 142 166 86 124 152 115 112 148 120
172 174 161 127 125 148 142 140 153 138 74 141 147 113 75 66 67 145 149 158 153 131 125 128 141 138 116 138 117 153 139 109 73 73 81 122 112 122 157 129 129 146 163 150 136 148 143 127 116
170 167 170 167 163 164 155 132 118 161 133 158 134 164 141 99 140 126 160 166 109 161 117 148 132 129 128 107 89 149 132 104 115 87 84 91 107 102 80 124 116 140 139 145 127 107 119 109 139
168 178 179 170 169 157 152 152 155 148 148 133 153 133 152 138 126 111 136 148 154 77 75 153 143 108 112 143 124 71 176 121 116 126 146 76 147 153 125 148 83 102 107 77 136 114 98 137 125
171 165 165 174 174 174 142 158 168 153 154 165 138 150 136 148 156 162 166 139 104 129 147 151 169 180 85 92 81 122 169 153 126 126 77 92 72 76 85 153 123 133 165 165 162 162 121 163 153
175 184 172 163 162 165 173 174 178 184 173 127 131 138 137 136 162 177 200 155 162 192 180 138 163 156 152 142 176 167 141 156 139 158 151 123 121 124 124 159 124 141 129 137 125 170 153 148 131
162 163 169 176 186 186 176 161 162 159 138 158 168 169 166 168 169 162 163 172 149 172 172 185 195 201 149 141 151 142 154 143 168 156 144 140 108 124 162 118 138 145 129 113 147 146 126 132 151
166 160 156 162 166 170 172 171 176 178 184 186 184 187 146 182 180 182 183 184 188 189 194 179 191 182 191 191 203 148 175 161 164 153 161 136 145 147 144 151 119 165 149 163 151 161 146 121 115
155 160 163 159 154 155 157 159 152 162 155 158 169 169 168 168 168 152 158 144 180 177 176 190 189 194 190 230 197 178 158 157 122 159 160 140 160 152 157 152 154 153 118 160 135 145 130 124 124
161 157 162 161 164 163 155 154 162 161 159 163 159 158 154 161 158 159 148 148 151 140 164 144 139 175 194 220 215 193 194 191 154 190 153 204 154 154 158 168 181 155 158 115 155 168 143 141 159
164 157 160 161 158 161 159 162 159 162 168 169 172 171 166 165 173 172 171 170 173 173 177 180 182 195 176 187 209 228 242 212 191 165 186 158 192 197 219 158 152 159 154 148 168 164 153 142 157
153 161 167 167 160 153 152 156 159 159 160 160 160 159 162 163 163 170 168 168 170 175 172 182 180 183 199 199 191 207 193 216 172 164 157 220 233 164 183 184 204 163 160 187 160 188 166 129 159
156 156 151 161 161 165 166 158 154 152 161 161 162 164 167 163 163 163 163 160 164 172 171 170 186 188 179 189 192 195 197 194 189 203 214 217 222 224 227 171 182 159 231 203 223 162 163 156 157
159 155 153 157 157 151 156 160 164 161 163 166 163 162 160 162 161 160 162 165 160 159 161 171 174 179 188 192 186 187 189 193 189 188 196 195 200 206 212 217 204 220 167 168 223 197 158 227 173
153 145 159 156 156 157 160 159 157 156 154 161 168 162 163 157 156 160 164 164 167 164 158 162 177 169 186 185 186 186 191 195 187 190 181 189 192 187 195 201 209 215 215 214 213 215 197 193 193
149 163 157 163 170 165 170 148 157 166 155 150 158 157 161 156 160 154 153 153 152 155 159 161 168 177 177 183 181 181 182 189 189 191 184 181 184 189 190 191 194 194 198 210 207 210 206 204 201
169 155 156 156 163 163 160 162 145 147 153 155 156 150 151 152 156 147 154 161 164 168 169 165 169 169 178 174 184 178 175 177 181 185 192 187 184 182 184 194 198 198 184 193 198 212 207 206 210
159 163 166 159 154 150 154 151 144 147 153 159 163 162 161 161 161 160 165 153 167 169 169 170 166 169 171 173 172 177 174 174 177 181 182 197 190 191 184 194 193 232 246 202 186 192 178 199 205
170 175 166 172 167 164 159 158 152 150 147 158 161 157 160 161 164 163 168 170 166 163 172 169 166 163 173 171 171 176 179 175 176 180 180 190 201 193 184 199 186 263 263 271 219 198 177 182 169
181 173 177 174 164 163 165 161 157 157 155 153 154 162 167 168 172 173 164 168 170 168 163 166 165 172 175 171 176 173 182 185 184 182 186 181 196 204 184 201 180 216 242 253 255 261 197 191 174
191 188 171 172 179 180 169 163 155 159 160 158 155 158 160 162 168 167 170 164 162 164 173 171 172 175 172 175 173 177 180 180 183 185 187 193 197 206 206 195 190 192 207 226 232 231 234 225 244
212 193 193 188 186 184 178 174 170 168 163 162 163 161 161 165 164 162 162 172 175 174 174 174 170 146 170 171 175 180 179 175 179 185 189 203 206 201 203 197 202 185 197 197 206 210 209 210 210
181 199 198 191 189 186 188 183 164 168 168 168 168 170 168 162 161 170 178 174 168 171 175 177 79 129 175 177 181 179 184 184 181 198 186 193 211 200 197 201 195 198 178 191 191 193 195 198 199
Wind_Speed
48 29 44 42 43 41 39 41 42 34 33 34 29 33 13 15 11 18 8 5 19 27 10 42 28 36 45 36 23 38 43 29 43 30 33 32 40 40 36 29 30 29 22 26 30 17 28 27 30
51 44 31 45 23 47 43 34 40 26 32 29 15 26 24 28 12 12 9 11 8 17 30 15 23 44 46 41 20 46 47 22 41 26 30 39 29 30 29 38 37 22 31 20 31 22 20 28 20
53 44 49 40 42 36 43 42 40 40 42 38 36 38 33 18 18 10 28 16 11 31 14 42 26 39 31 46 47 35 36 42 37 33 22 33 33 24 19 17 35 30 35 33 31 35 24 32 34
52 53 53 52 27 42 34 34 41 41 39 39 40 41 39 38 35 36 35 30 33 13 17 41 33 40 22 43 24 48 24 24 40 20 35 29 13 19 19 23 34 24 24 25 31 40 39 40 23
55 39 52 52 50 40 40 31 29 44 26 22 42 37 40 40 38 39 38 36 22 37 31 40 22 15 13 11 10 51 38 35 28 31 30 31 29 40 41 43 24 28 32 33 41 37 41 35 25
58 56 56 45 33 30 40 37 36 38 47 46 33 44 27 21 37 37 41 40 38 31 35 29 40 26 49 16 14 14 54 38 54 47 35 13 24 17 36 35 32 35 41 37 41 24 42 45 44
56 55 58 55 51 57 48 50 28 26 50 47 45 45 35 43 42 29 43 43 43 41 43 38 40 27 40 20 21 46 49 22 28 17 23 38 40 48 50 41 38 36 35 34 38 24 39 42 39
57 56 57 59 60 58 56 55 54 34 33 47 49 48 48 45 45 43 24 42 49 41 31 44 48 43 42 25 45 31 50 55 22 42 41 43 32 19 18 26 50 56 24 38 53 38 36 48 35
55 57 58 54 57 58 60 53 54 55 38 52 53 48 32 29 29 46 47 47 48 45 39 40 48 48 41 41 47 55 46 40 24 23 25 40 39 45 59 44 44 53 57 56 42 50 47 43 40
53 56 56 57 58 59 59 57 55 56 53 55 49 52 52 43 50 47 51 51 54 49 43 51 51 46 51 45 37 57 49 40 47 34 32 36 40 37 28 47 43 51 48 53 49 40 44 37 50
52 52 54 55 58 59 60 59 58 59 58 55 55 53 57 56 51 47 53 54 53 42 40 56 55 47 53 56 51 35 57 53 53 53 58 32 56 60 49 57 34 41 47 33 52 46 38 54 49
54 52 51 53 55 57 64 58 56 57 58 56 59 57 58 58 56 56 58 57 55 53 57 60 59 62 47 48 46 53 60 66 59 55 36 45 33 36 41 64 53 52 67 67 67 68 55 67 60
50 50 54 53 52 52 54 56 55 54 54 57 59 58 61 61 58 55 49 60 59 55 59 59 63 60 65 61 66 66 62 64 64 72 70 61 60 55 57 70 57 59 56 60 59 67 63 62 56
50 51 50 50 47 49 53 54 56 54 62 56 54 54 55 54 55 57 59 58 61 57 59 57 56 58 68 63 67 65 68 64 70 69 68 65 56 63 72 61 63 67 59 56 65 65 56 59 66
49 53 54 52 52 52 53 56 51 50 46 45 47 47 64 51 52 53 54 54 51 51 48 57 54 58 58 62 62 72 75 75 77 72 76 67 70 72 70 72 64 75 71 77 67 76 71 61 61
53 52 54 58 59 58 57 56 58 55 58 58 54 55 56 57 58 63 60 62 49 52 53 46 49 49 57 47 60 68 71 76 68 78 78 65 79 75 78 78 75 75 68 78 68 71 64 65 65
49 55 56 56 55 56 59 59 58 59 60 60 62 62 62 58 62 62 62 62 62 61 53 63 64 53 48 43 48 60 63 68 77 73 80 72 84 82 84 84 83 76 77 71 81 82 77 75 79
53 61 57 55 56 55 58 57 57 57 56 56 52 52 56 59 53 54 54 55 53 53 51 50 49 46 52 49 44 38 37 53 67 76 74 79 76 76 79 89 83 82 83 78 86 86 80 73 80
60 53 50 53 59 62 62 59 59 59 60 59 58 60 59 57 58 55 54 57 55 52 53 51 52 51 45 44 49 42 54 43 73 75 75 56 54 80 81 81 83 95 94 96 93 91 92 78 87
64 62 63 61 62 57 57 62 61 63 63 60 59 59 56 57 58 57 56 58 58 56 54 56 51 50 52 50 48 48 48 52 56 49 50 52 54 56 58 85 87 84 69 88 84 94 89 91 88
69 65 66 66 67 66 64 64 64 65 63 61 61 60 60 58 57 58 59 56 59 60 60 60 57 54 52 51 53 54 52 52 55 57 54 56 56 57 59 61 69 64 82 87 74 89 88 80 100
76 67 74 78 76 72 70 65 62 59 60 59 63 64 64 60 60 61 60 60 58 59 65 65 59 60 53 56 55 55 52 52 56 57 63 60 60 63 62 62 64 66 67 68 69 74 83 92 92
74 86 80 83 84 76 73 51 65 66 63 68 68 65 66 64 61 64 66 65 65 64 66 68 66 60 58 58 58 59 58 56 57 58 62 66 65 64 64 66 66 67 68 70 72 72 76 79 84
90 83 83 81 82 71 65 66 62 71 72 74 75 73 72 71 65 67 69 67 65 63 64 67 67 65 59 61 59 62 62 62 62 62 61 65 67 69 68 67 68 70 73 72 72 74 76 75 74
87 91 95 88 77 65 75 69 63 76 79 79 80 79 78 76 70 67 67 75 69 66 65 66 69 67 65 64 64 63 65 67 67 67 67 65 65 66 68 68 70 60 62 77 75 73 73 73 75
97 99 94 94 92 88 83 72 70 74 80 85 87 87 84 80 75 72 73 74 73 69 67 68 69 72 68 68 68 68 68 71 72 72 71 69 67 66 68 68 68 47 51 54 80 74 76 74 76
99 96 99 99 91 84 84 81 82 81 84 88 87 91 93 89 82 78 76 77 77 73 70 72 73 72 71 71 70 73 72 72 73 75 73 71 69 65 68 63 69 52 48 49 49 50 74 75 80
93 99 97 95 95 94 90 85 81 88 90 90 89 92 92 90 87 82 80 79 80 78 76 74 74 74 74 73 74 74 76 77 77 76 74 72 71 67 64 64 64 61 50 45 47 48 51 58 51
90 95 100 104 100 95 92 89 91 91 91 93 96 98 95 94 90 88 88 88 86 84 79 75 75 72 77 77 78 79 80 79 79 78 75 71 69 69 67 66 62 64 55 52 50 51 54 57 58
87 86 92 94 93 93 91 87 87 88 92 95 98 100 101 99 94 96 94 91 86 83 82 79 38 62 83 84 86 83 83 82 80 81 77 73 70 71 71 68 66 64 67 60 59 58 59 61 63
Wind_Direction
220 207 209 208 211 210 211 212 203 215 213 214 218 205 218 226 207 229 166 186 196 203 218 202 213 206 203 211 224 214 210 220 206 228 226 230 208 208 215 231 222 234 245 238 238 268 258 267 262
212 223 209 206 204 213 210 213 218 216 217 219 206 209 207 228 199 215 216 235 197 210 202 236 210 204 205 211 223 209 210 228 215 234 216 220 236 219 238 221 215 263 243 253 246 268 275 258 290
206 208 206 221 220 213 215 217 210 219 223 217 218 210 214 225 233 212 234 211 237 210 218 206 221 209 221 211 212 222 220 219 223 229 236 227 227 242 253 265 227 245 247 246 248 248 270 261 260
209 210 211 211 212 211 224 229 224 213 215 221 218 224 221 217 241 240 214 240 215 228 251 211 222 214 244 219 248 218 246 248 220 259 234 240 264 263 262 255 237 257 264 266 257 247 257 256 268
211 222 211 214 212 220 217 221 225 225 229 238 221 222 223 226 224 220 231 227 245 220 219 221 237 233 233 232 240 221 232 232 253 250 251 252 255 231 234 232 261 252 259 252 250 253 254 265 269
214 220 217 220 229 227 221 222 234 220 222 221 235 223 240 249 223 226 225 225 223 239 235 226 226 231 222 245 252 245 226 234 226 232 235 247 258 258 252 255 261 259 247 255 248 266 251 255 262
218 222 218 219 224 217 219 221 237 240 222 223 233 223 236 228 230 239 227 229 228 234 232 246 224 247 225 254 254 229 229 257 244 256 247 250 245 244 242 249 259 259 268 259 260 280 262 268 269
222 221 221 220 222 219 216 226 224 240 241 233 222 226 232 233 232 233 248 224 238 236 239 234 234 231 230 259 248 254 234 233 259 245 244 247 253 260 259 256 249 249 270 261 249 271 274 256 267
223 224 223 229 226 223 225 230 231 233 244 232 227 230 248 254 258 237 239 243 238 238 245 244 237 237 241 238 246 239 243 253 256 258 264 251 251 249 245 255 255 252 250 253 260 257 256 267 276
225 226 226 228 227 227 225 235 232 233 238 233 242 235 240 245 242 240 245 239 242 247 246 242 236 245 244 249 259 241 243 247 249 263 264 271 262 252 261 249 255 256 258 254 262 276 267 267 269
228 230 230 230 231 229 228 229 230 230 230 240 232 245 234 245 248 248 249 243 243 247 248 241 243 245 255 246 247 261 242 248 253 247 251 262 253 250 253 253 265 259 277 263 260 275 277 263 269
231 232 231 234 235 236 233 235 238 234 236 238 240 237 243 240 244 245 247 251 250 248 246 244 242 247 247 256 253 252 246 244 250 250 255 263 258 257 261 256 257 258 252 253 255 256 271 260 262
230 227 233 235 235 237 239 240 242 243 243 244 245 246 244 245 245 248 250 243 247 250 249 257 247 254 249 246 246 242 250 247 251 246 252 263 264 257 256 254 262 260 262 259 267 257 261 262 264
234 235 233 231 231 232 237 242 241 241 241 238 246 246 246 248 249 249 250 252 252 253 253 255 254 252 253 259 253 252 247 251 247 250 255 255 262 262 255 262 260 259 262 267 264 265 262 267 264
235 234 236 235 236 235 235 239 241 240 241 242 243 244 244 245 246 245 247 249 252 254 256 255 253 256 253 254 250 259 245 251 250 256 252 259 258 258 260 256 265 257 262 259 263 260 263 268 272
234 237 237 235 237 239 241 242 244 244 246 246 243 243 244 245 247 249 251 252 256 256 256 261 258 259 254 264 253 254 258 258 261 256 255 261 257 259 257 259 260 261 267 258 265 263 264 268 270
237 237 238 237 238 239 241 242 243 245 245 245 246 247 248 250 250 251 253 253 254 254 256 256 257 262 265 268 263 258 256 253 256 253 258 253 261 261 260 257 254 259 259 266 261 259 266 265 264
237 236 239 241 240 241 241 242 242 245 248 248 251 251 250 251 255 254 256 255 256 259 263 266 266 271 260 265 266 271 273 259 253 256 256 257 255 255 256 259 263 260 263 265 260 262 263 267 263
242 237 242 243 243 241 243 246 246 248 250 251 251 252 254 256 258 259 260 263 263 266 263 273 270 271 278 273 266 270 260 271 253 258 261 266 265 260 256 256 254 258 261 255 263 258 260 273 266
241 242 246 244 244 243 243 246 248 249 251 252 254 255 256 257 259 261 262 263 268 271 269 269 277 278 273 276 275 272 270 265 262 270 273 271 270 267 265 259 258 262 263 258 259 260 263 267 268
238 239 241 244 243 241 245 249 244 247 253 256 258 260 258 260 262 264 265 265 266 268 268 273 274 277 279 278 273 272 273 274 269 266 270 268 269 270 270 268 264 262 264 262 258 257 264 261 258
242 244 240 241 242 241 244 249 252 252 255 258 258 257 257 256 258 261 264 266 267 269 269 271 275 273 280 277 276 275 277 277 272 273 267 271 270 266 269 269 270 269 266 263 262 260 260 261 261
244 242 247 244 240 249 247 248 260 257 257 256 257 255 257 255 256 259 261 262 262 264 268 270 274 277 277 278 278 276 276 279 277 276 271 269 271 272 271 271 271 269 269 269 265 263 261 260 261
239 244 246 249 251 254 259 258 251 257 255 255 255 253 253 254 255 256 261 264 265 268 268 269 273 274 278 276 278 276 275 274 276 276 278 272 271 272 274 276 275 274 267 268 267 266 264 263 263
241 241 243 245 248 247 249 245 245 256 260 261 263 262 260 262 260 258 263 258 268 269 269 269 271 274 275 274 274 276 274 274 274 275 273 280 274 273 274 275 275 275 272 269 267 267 266 266 264
239 241 243 243 244 246 249 254 254 252 258 263 264 262 262 262 263 262 267 269 264 264 269 269 269 270 274 274 274 277 277 274 275 276 275 279 282 277 274 279 273 286 278 273 260 263 265 265 265
239 241 243 244 246 247 249 251 252 253 254 258 261 264 265 266 267 267 264 266 267 266 265 267 269 273 273 273 276 275 280 279 277 276 278 276 282 282 275 281 274 292 284 275 267 267 261 263 266
242 243 246 247 247 248 247 249 249 252 253 256 259 261 264 267 267 266 265 263 264 264 268 269 271 273 273 276 274 277 278 277 278 280 280 283 284 283 281 278 277 281 286 275 267 263 264 266 271
247 245 245 246 247 248 247 248 249 251 252 255 258 260 262 264 265 266 266 266 266 267 269 271 272 269 275 273 276 277 276 274 277 281 283 285 284 281 279 278 277 277 277 276 272 266 264 265 266
245 248 250 250 251 250 250 249 248 250 251 253 256 258 260 262 263 264 265 266 267 270 273 275 269 271 275 276 277 277 280 280 278 283 281 281 281 277 277 276 276 275 274 271 268 265 263 262 263